SCP
0 0 0 0 0 0 0 0 0 0 0 0 0 0 0 0 0 0 0 0 0 0 0 0 0 0 0 0 0 0 0 0 0 0 0 0 0 0 0 0 0 0 0 0 0
0 0 0 0 0 0 0 0 0 0 0 0 0 0 0 0 -0 0 0 0 0 0 0 0 0 0 0 0 0 0 0 0 0 0 0 0 0 0 0 0 0 0 0 0 0
0 0 0 0 0 0 0 0 0 0 0 0 0 0 0 -0 -0 0 0 0 0 0 0 0 0 0 0 0 0 0 0 0 0 0 0 0 0 0 0 0 0 0 0 0 0
0 0 0 0 0 0 0 0 0 0 0 0 0 0 0 0 0 0 0 0 0 0 0 0 0 0 0 0 0 0 0 0 0 0 0 0 0 0 0 0 0 0 0 0 0
0 0 0 0 0 0 0 0 0 0 0 0 0 0 0 0 0 0 0 0 0 0 0 0 0 0 0 0 0 0 0 0 0 0 0 0 0 0 0 0 0 0 0 0 0
0 0 0 0 0 0 0 0 0 0 0 0 0 0 0 0 0 0 0 0 0 0 0 0 0 0 0 0 0 0 0 0 0 0 0 0 0 0 0 0 0 0 0 0 0
0 0 0 0 0 0 0 0 0 0 0 -0 -0 0 0 0 0 0 0 0 0 0 0 0 0 0 0 0 0 0 0 0 0 0 0 0 0 0 0 0 0 0 0 0 0
0 0 0 0 0 0 0 0 0 -0 -0 -0 -0 0 0 0 0 0 0 0 0 0 0 0 0 0 0 0 0 0 0 0 0 0 0 0 0 0 0 0 0 0 0 0 0
0 0 0 0 0 0 0 0 -0 -0 -0 -0 0 0 0 0 0 0 0 0 0 0 0 0 0 0 0 0 0 0 0 0 0 0 0 0 0 0 0 0 0 0 0 0 0
0 0 0 0 0 0 0 0 -0 -0 0 -0 0 0 0 0 0 0 0 0 0 0 0 0 0 0 0 0 0 0 0 0 0 0 0 0 0 0 0 0 0 0 0 0 0
0 0 0 0 0 0 0 -0 0 0 0 0 0 0 0 0 0 0 0 0 0 0 0 0 0 0 0 0 0 0 0 0 0 0 0 0 0 0 0 0 0 0 0 0 0
0 0 0 0 0 0 0 0 0 0 0 0 0 0 0 0 0 0 0 0 0 0 0 0 0 0 0 0 0 0 0 0 0 0 0 0 0 0 0 0 0 0 0 0 0
0 0 0 0 0 0 0 0 0 0 0 0 0 0 0 0 0 0 0 0 0 0 0 0 0 0 0 0 0 0 0 0 0 0 -0 0 -0 0 0 0 0 0 0 0 0
0 0 0 0 0 0 0 0 0 0 0 0 0 0 0 0 0 0 0 0 0 0 0 0 0 0 0 0 0 0 0 0 0 0 0 0 0 0 0 0 0 0 0 0 0
0 0 0 0 0 0 0 0 0 0 0 0 0 0 0 0 0 0 0 0 0 0 0 0 0 0 0 0 0 0 0 0 0 0 0 0 0 0 0 0 0 0 0 0 0
0 0 0 0 0 0 0 0 0 0 0 0 0 0 0 0 0 0 0 0 0 0 0 0 0 0 0 0 0 0 0 0 0 0 0 0 0 0 0 0 0 0 0 -0 0
0 0 0 0 0 0 0 0 0 0 0 0 0 0 0 0 0 0 0 0 0 0 0 0 0 0 0 0 0 0 0 0 0 0 0 0 0 0 0 0 0 0 0 -0 -0
0 0 0 0 0 0 0 0 0 0 0 0 0 0 0 0 0 0 0 0 0 0 0 0 0 0 0 0 0 0 0 0 0 0 0 0 0 0 0 0 0 0 0 0 -0
0 0 0 0 0 0 0 0 0 0 0 0 0 0 0 0 0 0 0 0 0 0 0 0 0 0 0 0 0 0 0 0 0 0 0 0 0 0 0 0 0 0 0 0 0
0 0 0 0 0 0 0 0 0 0 0 0 0 0 0 0 0 0 0 0 0 0 0 0 0 0 0 0 0 0 0 0 0 0 0 0 0 0 0 0 0 0 0 0 0
0 0 0 0 0 0 0 0 0 0 0 0 0 0 0 0 0 0 0 0 0 0 0 0 0 0 0 0 0 0 0 0 0 0 0 0 0 0 0 0 0 0 0 0 0
0 0 0 0 0 0 0 0 0 0 0 0 0 0 0 0 0 0 0 0 0 0 0 0 0 0 0 0 0 0 0 0 0 0 0 0 0 0 0 0 0 0 0 0 0
0 0 0 0 0 0 0 0 0 0 0 0 0 0 0 0 0 0 0 0 0 0 0 0 0 0 0 0 0 0 0 0 0 0 0 0 0 0 0 0 0 0 -0 0 0
0 0 0 0 0 0 0 0 0 0 0 0 0 0 0 0 0 0 0 0 0 0 0 0 0 0 0 0 0 0 0 0 0 0 0 0 0 0 0 0 0 0 0 0 0
0 0 0 0 0 0 0 0 0 0 0 0 0 0 0 0 0 0 0 0 0 0 0 0 0 0 0 0 0 0 0 0 0 0 0 0 0 0 0 0 0 0 0 0 0
0 0 0 0 0 0 0 0 0 0 0 0 0 0 0 0 0 0 0 0 0 0 0 0 0 0 0 0 0 0 0 0 0 0 0 0 0 0 0 0 0 0 0 0 0
0 0 0 0 0 0 0 0 0 0 0 0 0 0 0 0 0 0 0 0 0 0 0 0 0 0 0 0 0 0 0 -0 0 0 0 0 0 0 0 0 0 0 0 0 0
Wind_Speed_500mb
7 11 15 16 15 16 15 14 13 11 11 12 13 13 10 9 6 9 6 10 9 10 8 6 3 7 9 10 7 7 12 14 13 12 2 4 7 4 7 17 15 16 20 5 15
8 10 12 16 19 19 18 16 15 15 14 14 13 13 11 9 5 9 11 11 11 11 5 1 3 9 10 10 9 15 11 9 11 6 6 3 10 17 13 19 25 30 28 22 21
7 9 13 17 20 21 22 20 18 17 16 17 16 14 12 8 0 3 14 12 12 10 3 4 8 9 11 10 14 9 11 13 3 9 8 14 20 23 19 21 33 35 24 31 24
10 12 15 18 19 20 21 22 20 19 16 16 15 14 9 5 6 8 15 14 12 10 3 2 9 9 9 10 10 10 14 12 6 4 7 13 17 22 36 45 30 18 21 23 27
14 15 17 19 21 23 23 22 21 21 19 16 14 11 4 1 3 9 14 13 12 8 3 3 10 9 11 5 8 18 13 10 12 13 20 24 35 33 49 48 40 36 32 31 29
15 17 18 20 23 26 27 26 24 22 22 18 13 8 1 10 5 6 10 12 10 7 8 4 4 8 7 6 12 5 16 22 14 14 17 19 26 8 13 12 20 32 38 35 30
13 15 18 21 24 27 30 31 29 26 20 15 11 5 1 6 3 4 8 8 9 8 6 3 2 5 3 5 5 10 14 14 15 7 7 17 27 33 35 22 21 23 27 27 27
11 14 16 19 24 29 32 32 30 22 15 12 7 1 4 3 1 4 7 8 8 7 4 2 4 2 2 3 6 9 7 9 11 3 3 8 22 14 11 15 22 21 23 26 30
16 18 20 22 25 29 33 35 27 20 12 11 4 5 3 2 1 4 6 4 6 6 5 3 2 2 3 7 11 10 12 11 4 8 10 5 28 7 3 17 32 36 40 44 46
19 20 24 24 26 28 30 32 21 13 18 8 5 5 2 3 6 10 9 7 2 3 3 2 4 7 8 10 5 9 13 7 13 9 13 28 51 51 43 40 49 46 44 43 41
33 31 32 30 29 30 30 22 14 5 20 4 8 8 8 15 15 11 10 5 3 3 5 4 7 15 9 6 7 9 13 22 22 11 13 19 39 53 44 49 49 39 28 24 22
27 28 32 30 33 26 25 13 11 11 15 17 10 6 13 9 6 6 5 3 5 7 5 7 13 7 5 1 5 8 15 13 16 5 9 25 49 54 42 20 12 11 10 19 24
25 27 29 26 25 24 17 13 19 24 11 3 3 2 3 1 3 3 3 2 5 8 12 15 6 7 3 6 10 14 14 11 11 20 15 25 23 16 6 9 11 12 11 17 20
22 21 25 23 18 8 10 16 20 24 7 4 1 3 5 2 5 3 2 2 5 6 5 9 8 8 9 12 8 14 6 3 11 15 7 11 12 21 7 12 15 20 23 21 20
20 16 16 14 10 10 11 15 14 9 9 6 3 3 5 7 7 1 1 2 6 6 5 8 7 9 12 6 9 5 2 7 10 5 7 4 7 15 5 8 15 22 29 28 25
24 17 12 11 9 8 8 5 7 2 14 5 2 1 3 1 4 7 3 2 2 4 7 2 2 4 6 2 3 3 8 7 3 4 7 8 7 13 8 5 10 10 26 30 26
28 22 18 12 8 2 3 5 2 8 6 6 1 3 3 1 1 4 5 9 7 5 10 8 9 7 6 7 6 6 9 5 6 5 5 11 6 23 19 5 4 10 11 15 20
29 22 19 14 14 8 7 3 12 4 9 2 4 4 4 5 4 2 5 8 10 7 4 7 8 11 11 4 4 10 4 6 11 8 8 4 13 9 2 5 12 17 15 13 18
20 20 24 18 20 12 5 7 10 9 4 7 5 7 7 5 4 4 8 4 3 11 9 5 5 8 4 3 6 9 7 5 3 4 6 10 12 25 17 22 23 22 19 23 14
13 16 26 27 24 17 3 12 8 3 6 5 7 6 6 8 5 4 5 6 5 3 1 6 7 4 7 1 3 6 3 4 5 9 11 9 8 21 9 2 8 7 2 3 4
15 11 17 38 30 14 11 12 9 13 14 10 5 4 10 3 4 2 6 5 4 6 8 3 2 7 3 10 3 5 6 8 6 6 9 16 11 3 9 13 6 8 10 11 31
14 8 14 37 16 11 13 11 4 11 17 11 5 9 8 7 5 7 8 6 6 8 5 3 2 7 11 7 3 2 4 7 8 6 7 7 21 22 13 9 6 17 18 31 33
11 13 16 43 13 16 5 7 15 11 14 14 16 15 7 8 6 12 4 5 5 6 5 9 5 5 8 4 5 10 13 13 8 5 23 15 18 9 7 14 28 37 35 29 45
8 5 15 31 26 22 16 13 13 18 29 18 10 10 7 11 17 4 4 2 4 6 6 4 6 13 23 17 5 8 17 22 20 10 19 34 54 51 46 47 42 48 58 50 38
18 10 18 10 24 25 32 11 17 18 20 27 12 30 20 13 16 9 13 9 11 12 10 2 12 13 25 28 25 27 30 29 30 38 21 50 45 49 50 48 55 66 45 43 55
18 10 10 13 27 33 40 35 30 20 20 13 31 23 36 27 23 10 15 14 12 14 13 7 6 2 9 16 18 28 38 35 42 48 47 58 61 55 71 52 46 50 46 50 64
46 45 14 20 22 23 35 41 36 41 28 43 26 29 23 29 38 33 15 14 9 13 18 14 8 7 12 5 6 19 22 38 30 36 37 39 47 37 51 42 50 52 56 48 44
Wind_Direction_500mb
20 20 16 19 23 21 20 17 12 11 14 15 14 13 11 18 24 24 342 359 1 350 5 42 48 163 154 188 197 223 247 254 251 242 88 128 263 199 267 257 247 239 263 287 232
358 7 17 12 10 10 11 6 5 1 3 4 4 3 10 10 53 14 353 359 5 2 35 332 200 185 186 189 195 229 254 297 20 323 274 248 271 304 277 253 252 251 250 249 254
5 9 9 12 10 4 1 358 356 355 355 354 353 356 3 2 6 297 348 358 2 4 59 153 184 211 217 193 196 189 253 22 277 300 296 289 278 265 267 268 260 260 264 241 255
14 14 13 11 9 7 0 354 350 346 344 345 348 353 1 27 310 311 344 354 2 6 29 237 227 228 238 221 202 252 248 268 306 294 283 274 297 266 255 252 277 256 261 241 253
25 22 18 13 7 1 357 352 347 341 335 336 340 350 9 326 223 323 349 352 1 0 343 268 242 262 245 241 242 244 277 267 265 268 273 275 265 267 269 263 261 256 247 246 252
23 19 18 12 5 358 352 346 340 334 330 330 333 342 131 238 249 336 352 0 7 26 12 8 313 274 292 247 243 347 283 275 273 269 271 274 274 288 259 227 243 234 241 247 246
11 11 5 2 360 354 348 341 333 328 324 324 326 335 84 176 240 347 8 10 15 30 21 0 192 318 294 255 284 295 294 270 235 262 269 302 271 227 252 239 237 231 237 241 237
344 347 350 351 348 345 343 339 332 328 326 320 324 74 182 219 230 357 7 7 14 13 2 38 109 144 314 275 251 262 258 274 117 283 140 300 279 180 191 218 247 246 244 243 236
319 326 332 337 339 339 339 339 335 334 343 338 325 149 150 126 30 332 8 350 348 358 358 12 52 219 218 261 256 197 291 270 277 47 322 280 291 271 172 249 259 262 262 260 255
297 307 317 324 331 337 342 337 330 344 352 2 70 148 119 245 303 312 318 331 273 345 305 293 249 256 222 231 265 323 292 274 285 36 313 284 273 281 280 276 275 273 268 263 256
299 303 305 308 319 333 345 354 347 324 338 287 293 291 291 295 298 296 297 319 276 207 247 60 263 235 12 342 318 298 282 282 292 32 308 275 284 287 288 282 279 273 260 241 218
295 302 307 314 318 321 343 22 25 329 306 298 294 281 278 286 279 325 307 245 224 235 169 209 240 57 78 141 263 260 288 289 289 15 302 300 294 284 288 264 261 269 199 177 174
307 302 304 312 314 320 328 353 344 341 264 263 247 316 274 301 257 291 18 237 247 224 219 257 72 124 222 227 263 252 255 295 282 319 265 308 272 279 179 210 233 219 199 183 180
313 311 308 304 306 323 329 329 336 342 292 174 111 354 348 336 231 271 155 128 198 256 219 266 109 202 227 252 227 277 46 281 297 337 302 13 287 293 265 244 205 206 207 205 204
309 328 327 341 293 284 288 303 324 3 298 55 72 327 349 308 342 339 169 190 231 170 212 86 179 202 238 265 199 11 348 310 310 296 323 177 229 276 166 228 217 205 209 212 216
287 293 311 330 316 313 313 342 351 90 247 102 108 354 294 354 324 316 261 158 111 206 218 297 119 240 343 97 260 61 275 226 245 168 242 143 226 286 246 146 156 170 204 214 219
270 277 275 279 254 270 354 52 343 215 345 317 38 6 330 332 220 324 283 217 207 150 214 172 197 145 194 225 179 244 280 276 249 217 274 146 212 250 282 169 194 168 177 217 216
258 250 258 256 196 156 100 43 213 224 218 199 243 237 272 344 175 227 263 269 233 254 265 236 231 187 151 265 10 187 297 298 289 287 348 163 240 243 338 345 244 235 234 238 236
246 234 235 232 218 199 197 214 222 215 151 186 184 228 187 188 259 285 223 253 324 224 242 247 182 117 76 344 308 133 204 55 293 142 271 233 263 268 275 230 243 231 250 249 246
211 224 238 219 222 208 182 235 243 249 142 103 226 230 251 180 199 189 209 154 171 201 329 43 276 27 90 222 168 283 30 237 172 282 273 232 262 261 263 86 121 151 176 224 295
203 228 240 211 203 198 219 225 245 225 201 214 237 268 239 251 234 231 281 139 243 160 195 197 248 109 172 198 240 159 227 221 285 241 275 298 268 15 24 21 25 64 356 338 320
210 233 224 189 177 204 211 193 263 214 209 230 210 239 227 209 224 248 251 232 142 172 187 134 229 231 239 96 47 56 297 241 261 214 254 301 265 307 60 72 6 302 294 304 312
226 233 206 186 211 213 206 244 245 205 204 197 212 219 210 215 239 220 200 32 164 210 192 174 193 278 184 178 185 223 195 217 224 263 255 263 263 110 4 307 285 293 278 303 313
234 230 201 212 232 229 200 222 224 221 235 214 225 179 164 216 226 202 226 196 195 210 253 184 206 241 261 317 40 210 207 213 207 234 272 247 282 277 280 277 296 303 316 311 306
224 231 202 208 230 220 230 190 209 212 217 215 239 207 195 217 218 209 229 233 208 198 185 156 250 231 259 277 282 266 263 246 225 238 247 267 264 287 287 298 301 303 303 311 311
225 217 214 241 225 207 220 230 215 225 189 216 228 209 221 227 210 191 216 222 231 175 179 174 250 137 262 247 269 268 259 255 250 255 256 262 271 273 285 301 308 301 301 310 313
237 239 242 240 218 224 218 228 233 217 241 231 219 235 227 231 240 252 283 263 248 181 197 182 202 207 250 84 313 271 242 226 244 243 242 254 261 298 306 311 307 303 304 306 317
Wind_Speed_850mb
7 11 15 16 15 16 15 14 13 11 11 12 13 13 10 9 6 9 6 10 9 10 8 6 3 7 9 10 7 7 12 14 13 12 2 4 7 4 7 17 15 16 20 5 15
8 10 12 16 19 19 18 16 15 15 14 14 13 13 11 9 5 9 11 11 11 11 5 1 3 9 10 10 9 15 11 9 11 6 6 3 10 17 13 19 25 30 28 22 21
7 9 13 17 20 21 22 20 18 17 16 17 16 14 12 8 0 3 14 12 12 10 3 4 8 9 11 10 14 9 11 13 3 9 8 14 20 23 19 21 33 35 24 31 24
10 12 15 18 19 20 21 22 20 19 16 16 15 14 9 5 6 8 15 14 12 10 3 2 9 9 9 10 10 10 14 12 6 4 7 13 17 22 36 45 30 18 21 23 27
14 15 17 19 21 23 23 22 21 21 19 16 14 11 4 1 3 9 14 13 12 8 3 3 10 9 11 5 8 18 13 10 12 13 20 24 35 33 49 48 40 36 32 31 29
15 17 18 20 23 26 27 26 24 22 22 18 13 8 1 10 5 6 10 12 10 7 8 4 4 8 7 6 12 5 16 22 14 14 17 19 26 8 13 12 20 32 38 35 30
13 15 18 21 24 27 30 31 29 26 20 15 11 5 1 6 3 4 8 8 9 8 6 3 2 5 3 5 5 10 14 14 15 7 7 17 27 33 35 22 21 23 27 27 27
11 14 16 19 24 29 32 32 30 22 15 12 7 1 4 3 1 4 7 8 8 7 4 2 4 2 2 3 6 9 7 9 11 3 3 8 22 14 11 15 22 21 23 26 30
16 18 20 22 25 29 33 35 27 20 12 11 4 5 3 2 1 4 6 4 6 6 5 3 2 2 3 7 11 10 12 11 4 8 10 5 28 7 3 17 32 36 40 44 46
19 20 24 24 26 28 30 32 21 13 18 8 5 5 2 3 6 10 9 7 2 3 3 2 4 7 8 10 5 9 13 7 13 9 13 28 51 51 43 40 49 46 44 43 41
33 31 32 30 29 30 30 22 14 5 20 4 8 8 8 15 15 11 10 5 3 3 5 4 7 15 9 6 7 9 13 22 22 11 13 19 39 53 44 49 49 39 28 24 22
27 28 32 30 33 26 25 13 11 11 15 17 10 6 13 9 6 6 5 3 5 7 5 7 13 7 5 1 5 8 15 13 16 5 9 25 49 54 42 20 12 11 10 19 24
25 27 29 26 25 24 17 13 19 24 11 3 3 2 3 1 3 3 3 2 5 8 12 15 6 7 3 6 10 14 14 11 11 20 15 25 23 16 6 9 11 12 11 17 20
22 21 25 23 18 8 10 16 20 24 7 4 1 3 5 2 5 3 2 2 5 6 5 9 8 8 9 12 8 14 6 3 11 15 7 11 12 21 7 12 15 20 23 21 20
20 16 16 14 10 10 11 15 14 9 9 6 3 3 5 7 7 1 1 2 6 6 5 8 7 9 12 6 9 5 2 7 10 5 7 4 7 15 5 8 15 22 29 28 25
24 17 12 11 9 8 8 5 7 2 14 5 2 1 3 1 4 7 3 2 2 4 7 2 2 4 6 2 3 3 8 7 3 4 7 8 7 13 8 5 10 10 26 30 26
28 22 18 12 8 2 3 5 2 8 6 6 1 3 3 1 1 4 5 9 7 5 10 8 9 7 6 7 6 6 9 5 6 5 5 11 6 23 19 5 4 10 11 15 20
29 22 19 14 14 8 7 3 12 4 9 2 4 4 4 5 4 2 5 8 10 7 4 7 8 11 11 4 4 10 4 6 11 8 8 4 13 9 2 5 12 17 15 13 18
20 20 24 18 20 12 5 7 10 9 4 7 5 7 7 5 4 4 8 4 3 11 9 5 5 8 4 3 6 9 7 5 3 4 6 10 12 25 17 22 23 22 19 23 14
13 16 26 27 24 17 3 12 8 3 6 5 7 6 6 8 5 4 5 6 5 3 1 6 7 4 7 1 3 6 3 4 5 9 11 9 8 21 9 2 8 7 2 3 4
15 11 17 38 30 14 11 12 9 13 14 10 5 4 10 3 4 2 6 5 4 6 8 3 2 7 3 10 3 5 6 8 6 6 9 16 11 3 9 13 6 8 10 11 31
14 8 14 37 16 11 13 11 4 11 17 11 5 9 8 7 5 7 8 6 6 8 5 3 2 7 11 7 3 2 4 7 8 6 7 7 21 22 13 9 6 17 18 31 33
11 13 16 43 13 16 5 7 15 11 14 14 16 15 7 8 6 12 4 5 5 6 5 9 5 5 8 4 5 10 13 13 8 5 23 15 18 9 7 14 28 37 35 29 45
8 5 15 31 26 22 16 13 13 18 29 18 10 10 7 11 17 4 4 2 4 6 6 4 6 13 23 17 5 8 17 22 20 10 19 34 54 51 46 47 42 48 58 50 38
18 10 18 10 24 25 32 11 17 18 20 27 12 30 20 13 16 9 13 9 11 12 10 2 12 13 25 28 25 27 30 29 30 38 21 50 45 49 50 48 55 66 45 43 55
18 10 10 13 27 33 40 35 30 20 20 13 31 23 36 27 23 10 15 14 12 14 13 7 6 2 9 16 18 28 38 35 42 48 47 58 61 55 71 52 46 50 46 50 64
46 45 14 20 22 23 35 41 36 41 28 43 26 29 23 29 38 33 15 14 9 13 18 14 8 7 12 5 6 19 22 38 30 36 37 39 47 37 51 42 50 52 56 48 44
Wind_Direction_850mb
20 20 16 19 23 21 20 17 12 11 14 15 14 13 11 18 24 24 342 359 1 350 5 42 48 163 154 188 197 223 247 254 251 242 88 128 263 199 267 257 247 239 263 287 232
358 7 17 12 10 10 11 6 5 1 3 4 4 3 10 10 53 14 353 359 5 2 35 332 200 185 186 189 195 229 254 297 20 323 274 248 271 304 277 253 252 251 250 249 254
5 9 9 12 10 4 1 358 356 355 355 354 353 356 3 2 6 297 348 358 2 4 59 153 184 211 217 193 196 189 253 22 277 300 296 289 278 265 267 268 260 260 264 241 255
14 14 13 11 9 7 0 354 350 346 344 345 348 353 1 27 310 311 344 354 2 6 29 237 227 228 238 221 202 252 248 268 306 294 283 274 297 266 255 252 277 256 261 241 253
25 22 18 13 7 1 357 352 347 341 335 336 340 350 9 326 223 323 349 352 1 0 343 268 242 262 245 241 242 244 277 267 265 268 273 275 265 267 269 263 261 256 247 246 252
23 19 18 12 5 358 352 346 340 334 330 330 333 342 131 238 249 336 352 0 7 26 12 8 313 274 292 247 243 347 283 275 273 269 271 274 274 288 259 227 243 234 241 247 246
11 11 5 2 360 354 348 341 333 328 324 324 326 335 84 176 240 347 8 10 15 30 21 0 192 318 294 255 284 295 294 270 235 262 269 302 271 227 252 239 237 231 237 241 237
344 347 350 351 348 345 343 339 332 328 326 320 324 74 182 219 230 357 7 7 14 13 2 38 109 144 314 275 251 262 258 274 117 283 140 300 279 180 191 218 247 246 244 243 236
319 326 332 337 339 339 339 339 335 334 343 338 325 149 150 126 30 332 8 350 348 358 358 12 52 219 218 261 256 197 291 270 277 47 322 280 291 271 172 249 259 262 262 260 255
297 307 317 324 331 337 342 337 330 344 352 2 70 148 119 245 303 312 318 331 273 345 305 293 249 256 222 231 265 323 292 274 285 36 313 284 273 281 280 276 275 273 268 263 256
299 303 305 308 319 333 345 354 347 324 338 287 293 291 291 295 298 296 297 319 276 207 247 60 263 235 12 342 318 298 282 282 292 32 308 275 284 287 288 282 279 273 260 241 218
295 302 307 314 318 321 343 22 25 329 306 298 294 281 278 286 279 325 307 245 224 235 169 209 240 57 78 141 263 260 288 289 289 15 302 300 294 284 288 264 261 269 199 177 174
307 302 304 312 314 320 328 353 344 341 264 263 247 316 274 301 257 291 18 237 247 224 219 257 72 124 222 227 263 252 255 295 282 319 265 308 272 279 179 210 233 219 199 183 180
313 311 308 304 306 323 329 329 336 342 292 174 111 354 348 336 231 271 155 128 198 256 219 266 109 202 227 252 227 277 46 281 297 337 302 13 287 293 265 244 205 206 207 205 204
309 328 327 341 293 284 288 303 324 3 298 55 72 327 349 308 342 339 169 190 231 170 212 86 179 202 238 265 199 11 348 310 310 296 323 177 229 276 166 228 217 205 209 212 216
287 293 311 330 316 313 313 342 351 90 247 102 108 354 294 354 324 316 261 158 111 206 218 297 119 240 343 97 260 61 275 226 245 168 242 143 226 286 246 146 156 170 204 214 219
270 277 275 279 254 270 354 52 343 215 345 317 38 6 330 332 220 324 283 217 207 150 214 172 197 145 194 225 179 244 280 276 249 217 274 146 212 250 282 169 194 168 177 217 216
258 250 258 256 196 156 100 43 213 224 218 199 243 237 272 344 175 227 263 269 233 254 265 236 231 187 151 265 10 187 297 298 289 287 348 163 240 243 338 345 244 235 234 238 236
246 234 235 232 218 199 197 214 222 215 151 186 184 228 187 188 259 285 223 253 324 224 242 247 182 117 76 344 308 133 204 55 293 142 271 233 263 268 275 230 243 231 250 249 246
211 224 238 219 222 208 182 235 243 249 142 103 226 230 251 180 199 189 209 154 171 201 329 43 276 27 90 222 168 283 30 237 172 282 273 232 262 261 263 86 121 151 176 224 295
203 228 240 211 203 198 219 225 245 225 201 214 237 268 239 251 234 231 281 139 243 160 195 197 248 109 172 198 240 159 227 221 285 241 275 298 268 15 24 21 25 64 356 338 320
210 233 224 189 177 204 211 193 263 214 209 230 210 239 227 209 224 248 251 232 142 172 187 134 229 231 239 96 47 56 297 241 261 214 254 301 265 307 60 72 6 302 294 304 312
226 233 206 186 211 213 206 244 245 205 204 197 212 219 210 215 239 220 200 32 164 210 192 174 193 278 184 178 185 223 195 217 224 263 255 263 263 110 4 307 285 293 278 303 313
234 230 201 212 232 229 200 222 224 221 235 214 225 179 164 216 226 202 226 196 195 210 253 184 206 241 261 317 40 210 207 213 207 234 272 247 282 277 280 277 296 303 316 311 306
224 231 202 208 230 220 230 190 209 212 217 215 239 207 195 217 218 209 229 233 208 198 185 156 250 231 259 277 282 266 263 246 225 238 247 267 264 287 287 298 301 303 303 311 311
225 217 214 241 225 207 220 230 215 225 189 216 228 209 221 227 210 191 216 222 231 175 179 174 250 137 262 247 269 268 259 255 250 255 256 262 271 273 285 301 308 301 301 310 313
237 239 242 240 218 224 218 228 233 217 241 231 219 235 227 231 240 252 283 263 248 181 197 182 202 207 250 84 313 271 242 226 244 243 242 254 261 298 306 311 307 303 304 306 317